Location: Orinda
(37.8771°N, 122.1797°W)
Time: 18:27:06
(UTC+00:00)

Cosmos 1726 Rocket - Pass Details

Date: 21 October 2019
Orbit: 602 x 630 km, 82.5° (Epoch: 13 November)

Event Time Altitude Azimuth Distance (km) Brightness Sun altitude
Rises 13:21:21 0° 343° (NNW) 2,860 6.8 -12.8°
Reaches altitude 10° 13:23:41 10° 334° (NNW) 1,952 5.8 -12.4°
Maximum altitude 13:27:37 35° 269° (W) 977 4.1 -11.6°
Drops below altitude 10° 13:31:31 10° 203° (SSW) 1,943 5.9 -10.8°
Sets 13:33:52 0° 194° (SSW) 2,844 6.9 -10.4°
